Tracking 19969 objects as of 14-Nov-2019
Live streaming from Space Station
objects crossing your sky now
Track the group of recently launched Starlink satellites

QUANTUTONG 1

Track QUANTUTONG 1 now!
10-day predictions
QUANTUTONG 1 is classified as:


NORAD ID: 43158
Int'l Code: 2018-008D
Perigee: 532.4 km
Apogee: 551.8 km
Inclination: 97.5 °
Period: 95.3 minutes
Semi major axis: 6913 km
RCS: Unknown
Launch date: January 19, 2018
Source: People's Republic of China (PRC)
Launch site: Jiuquan Satellite Launch Center, China (JSC)

Uplink (MHz): 436.100/2415.000/5667.000
Downlink (MHz): 436.100/2415.000/5845.000
Beacon (MHz):
Mode: 9k6 GMSK/5Mbps OFDM
Call sign:
Status: Inactive

aabbcc
Your satellite tracking list
Your tracking list is empty




NASA's NSSDC Master Catalog

Two Line Element Set (TLE):
1 43158U 18008D   19317.85080763  .00000507  00000-0  34621-4 0  9998
2 43158  97.4743  26.3768 0013988 165.4085 306.4563 15.10409820100128
Source of the keplerian elements: AMSAT